Home > Weather > Columbia > Past weeks

Flag for USA Past Weather in Columbia, South Carolina, USA — Yesterday and Last 2 Weeks

Now
82 °F

Sunny.


Feels Like: 85 °F
Forecast: 71 / 89 °F
Wind: 5 mph from South

Location: Columbia Owens Downtown Airport

Current Time: Jun 29, 2016 at 9:49:24 PM

Latest Report: Jun 29, 2016 at 8:53 PM


Visibility: 10 mi

Pressure: 29.94 "Hg

Humidity: 65%

Dew Point: 69 °F

Location of ColumbiaLocation

Past Weather in Columbia — Graph

°F

Columbia Temperature Yesterday

Maximum temperature yesterday: 93 °F (at 1:53 PM)
Minimum temperature yesterday: 76 °F (at 5:53 AM)
Average temperature yesterday: 81 °F

High & Low Weather Summary for the Past Weeks

 TemperatureHumidityPressure
High99 °F (Jun 24, 3:53 PM)94% (Jun 15, 1:53 AM)30.36 "Hg (Jun 15, 1:53 AM)
Low64 °F (Jun 20, 5:53 AM)24% (Jun 23, 6:53 PM)29.72 "Hg (Jun 17, 3:53 AM)
Average82 °F62%30.03 "Hg
* Reported Jun 14 7:53 PM — Jun 29 7:53 PM, Columbia, Weather by CustomWeather, © 2016

Note: Actual official high and low records may vary slightly from our data, if they occured in-between our weather recording intervals... More about our weather records

Advertising

Columbia Weather History for the Previous 24 Hours

Scroll right to see more
 ConditionsComfort  
Time TempWeatherWind HumidityBarometerVisibility
7:53 PM
Wed, Jun 29
85 °FSunny.8 mph53%29.92 "Hg10 mi
6:53 PM87 °FSunny.9 mph48%29.92 "Hg10 mi
5:53 PM89 °FSunny.14 mph43%29.92 "Hg10 mi
4:53 PM90 °FSunny.12 mph41%29.92 "Hg10 mi
3:53 PM92 °FSunny.7 mph36%29.92 "Hg10 mi
2:53 PM92 °FSunny.12 mph35%29.93 "Hg10 mi
1:53 PM90 °FSunny.10 mph47%29.94 "Hg10 mi
12:53 PM89 °FSunny.5 mph52%29.96 "Hg10 mi
11:53 AM90 °FSunny.9 mph52%29.96 "Hg10 mi
10:53 AM87 °FSunny.5 mph45%29.96 "Hg10 mi
9:53 AM85 °FSunny.3 mph51%29.96 "Hg10 mi
8:53 AM82 °FPassing clouds.No wind70%29.96 "Hg10 mi
7:53 AM78 °FSunny.No wind79%29.96 "Hg10 mi
6:53 AM76 °FClear.No wind88%29.95 "Hg9 mi
5:53 AM77 °FClear.No wind82%29.94 "Hg10 mi
4:53 AM77 °FPassing clouds.No wind82%29.93 "Hg10 mi
3:53 AM79 °FOvercast.6 mph77%29.93 "Hg10 mi
2:53 AM78 °FPassing clouds.No wind82%29.92 "Hg10 mi
1:53 AM78 °FClear.No wind82%29.93 "Hg10 mi
12:53 AM79 °FClear.3 mph79%29.95 "Hg10 mi
11:53 PM
Tue, Jun 28
79 °FClear.No wind79%29.96 "Hg10 mi
10:53 PM80 °FClear.No wind76%29.96 "Hg10 mi
9:53 PM81 °FClear.No wind72%29.94 "Hg10 mi
Weather by CustomWeather, © 2016

See weather overviewHow to use our weather pages